DW8492 Weather Reports


Display with metric or nautical units.
time (UTC)temp
F
wind
direction
speed
MPH
gust
MPH
rain 1hr
in
rain 24hr
in
rain mn
in
humidity
%
barometer
mb
20260506094616 56 258 0.0 4.0 0.10 0.34 0.34 95 1003.7
20260506093008 56 256 1.0 4.0 0.12 0.32 0.32 95 1003.7
20260506091546 56 237 0.0 6.0 0.13 0.28 0.28 95 1003.9
20260506090004 56 163 0.0 3.0 0.13 0.27 0.27 95 1004.1
20260506084540 56 167 0.0 2.0 0.09 0.23 0.23 95 1004.5
20260506083022 56 167 0.0 0.0 0.05 0.19 0.19 94 1004.5
20260506081556 56 167 0.0 2.0 0.02 0.16 0.16 94 1004.4
20260506073006 56 230 0.0 0.0 0.02 0.14 0.14 94 1004.2
20260506071544 56 230 0.0 0.0 0.03 0.14 0.14 94 1004.2
20260506061532 57 160 0.0 3.0 0.06 0.11 0.11 93 1005.1
20260506050110 58 151 0.0 0.0 0.03 0.03 0.03 90 1006.4
20260506044542 59 151 0.0 1.0 0.01 0.01 0.01 89 1006.7
20260506043104 59 128 0.0 3.0 0.00 0.00 0.00 88 1006.5
20260506041525 59 69 0.0 2.0 0.00 0.00 0.00 87 1006.3
20260506040110 59 37 0.0 5.0 0.00 0.00 0.00 86 1006.5
20260506034509 59 302 0.0 3.0 0.00 0.00 0.00 85 1006.1
20260506033039 60 348 0.0 0.0 0.00 0.00 0.00 84 1006.0
20260506031530 60 348 0.0 0.0 0.00 0.00 0.00 83 1006.0
20260506030048 60 355 0.0 3.0 0.00 0.00 0.00 82 1006.3
20260506024516 61 326 0.0 5.0 0.00 0.00 0.00 80 1006.5
20260506023041 62 266 2.0 10.0 0.00 0.00 0.00 78 1006.4
20260506021512 64 303 2.0 6.0 0.00 0.00 0.00 72 1006.0
20260506014522 67 237 1.0 4.0 0.00 0.00 0.00 56 1005.7
20260506013003 67 221 1.0 6.0 0.00 0.00 0.00 56 1005.5
20260506011540 67 269 2.0 6.0 0.00 0.00 0.00 56 1005.4
20260506010100 67 200 1.0 6.0 0.00 0.00 0.00 56 1005.3
20260506004528 67 243 2.0 6.0 0.00 0.00 0.00 56 1005.4
20260506003021 68 171 0.0 5.0 0.00 0.00 0.00 56 1005.4
20260506001556 68 262 1.0 4.0 0.00 0.00 0.00 57 1005.6
20260506000001 68 150 1.0 4.0 0.00 0.00 0.00 59 1005.8
20260505234540 68 244 0.0 4.0 0.00 0.01 0.00 59 1005.5
20260505233113 69 240 0.0 4.0 0.00 0.01 0.00 58 1005.2
20260505231544 69 209 1.0 5.0 0.00 0.01 0.00 57 1005.6
20260505224531 69 234 3.0 11.0 0.00 0.01 0.00 56 1005.6
20260505223108 70 300 1.0 9.0 0.00 0.01 0.00 56 1005.6
20260505221530 70 242 4.0 8.0 0.00 0.01 0.00 56 1005.7
20260505220103 70 213 2.0 7.0 0.00 0.01 0.00 56 1005.8
20260505214549 71 288 2.0 10.0 0.00 0.01 0.00 55 1005.7
20260505213006 71 238 3.0 13.0 0.00 0.01 0.00 55 1005.6
20260505211540 70 225 2.0 14.0 0.00 0.01 0.00 56 1005.6
20260505210002 70 267 2.0 8.0 0.00 0.01 0.00 56 1005.6
20260505204511 71 199 1.0 8.0 0.00 0.01 0.00 55 1005.6
20260505203008 71 229 2.0 9.0 0.00 0.01 0.00 57 1005.5
20260505201544 70 236 2.0 5.0 0.00 0.01 0.00 56 1005.7
20260505200001 70 210 1.0 7.0 0.00 0.01 0.00 56 1005.9
20260505194539 70 231 0.0 5.0 0.00 0.01 0.00 57 1006.1
20260505193001 70 293 2.0 7.0 0.00 0.01 0.00 55 1006.3
20260505191541 70 41 1.0 7.0 0.00 0.01 0.00 55 1006.4
20260505190006 70 284 3.0 9.0 0.00 0.01 0.00 54 1006.2
20260505184544 71 208 4.0 13.0 0.00 0.01 0.00 52 1006.3
20260505183007 72 186 4.0 16.0 0.00 0.01 0.00 52 1006.3
20260505181551 71 215 4.0 10.0 0.00 0.01 0.00 52 1006.3
20260505180015 69 325 4.0 11.0 0.00 0.01 0.00 58 1006.7
20260505174555 69 229 5.0 15.0 0.00 0.01 0.00 55 1006.6
20260505173020 70 190 4.0 12.0 0.00 0.01 0.00 55 1006.3
20260505171601 71 69 4.0 8.0 0.00 0.01 0.00 53 1005.8
20260505170024 72 298 3.0 10.0 0.00 0.01 0.00 54 1005.5
20260505164622 71 292 3.0 14.0 0.00 0.01 0.00 54 1005.7
20260505163021 72 201 3.0 7.0 0.00 0.01 0.00 57 1005.9
20260505161613 69 247 2.0 7.0 0.00 0.01 0.00 60 1006.2
20260505153018 69 211 3.0 11.0 0.00 0.01 0.00 59 1006.3
20260505151554 69 228 4.0 9.0 0.00 0.01 0.00 59 1006.2
20260505124602 65 129 3.0 9.0 0.00 0.01 0.00 65 1006.5
20260505123051 65 225 3.0 7.0 0.00 0.01 0.00 67 1006.6
20260505121521 63 162 2.0 8.0 0.00 0.01 0.00 67 1006.7
20260505120109 64 195 3.0 8.0 0.00 0.01 0.00 67 1006.5
20260505114603 63 242 2.0 6.0 0.00 0.01 0.00 68 1006.6
20260505113028 63 205 2.0 7.0 0.00 0.01 0.00 69 1006.6
20260505111558 62 234 3.0 9.0 0.00 0.01 0.00 69 1006.4
20260505101553 62 236 3.0 7.0 0.00 0.01 0.00 69 1005.8